Location: Toledo
(39.8673°N, 4.0298°W)
Time: 02:29:46
(UTC+00:00)

Daily predictions for brighter satellites

Satellite Brightness Start Highest point End
(mag) Time Altitude Azimuth Time Altitude Azimuth Time Altitude Azimuth
SL-08 ROCKET BODY 4.4 00:11:57 66° ESE 00:12:17 68° E 00:18:14 10° NNE
Cosmos 1975 Rocket 4.2 00:14:30 37° NW 00:14:30 37° NW 00:17:58 10° N
NOSS 3-4 (A) 3.8 00:06:50 10° NW 00:13:56 79° WSW 00:15:35 59° S
NOSS 3-4 (C) 3.8 00:06:54 10° NW 00:14:01 79° WSW 00:15:41 59° SSE
Cosmos 44 3.8 00:19:22 47° NNE 00:19:22 47° NNE 00:22:34 10° NNE
Cosmos 1818 3.5 00:13:43 10° NNW 00:19:10 79° NE 00:19:10 79° NE
Cosmos 2228 4.1 00:23:02 10° NNW 00:25:54 40° NW 00:25:54 40° NW
Cosmos 1656 4.1 00:33:45 48° E 00:33:45 48° E 00:38:47 10° NE
Cosmos 923 Rocket 4.3 00:34:36 10° N 00:39:43 56° ENE 00:39:56 56° E
Cosmos 381 Rocket 4.3 00:36:43 10° NNW 00:43:05 90° W 00:43:46 73° SSE
Cosmos 1400 Rocket 4.1 00:41:06 10° N 00:43:29 36° N 00:43:29 36° N
EO 1 Delta rocket 4.1 00:46:45 64° NW 00:46:45 64° NW 00:50:46 10° NNW
Cosmos 1937 Rocket 3.5 00:47:15 69° NW 00:47:15 69° NW 00:52:12 10° NNE
ISS -0.2 00:51:12 10° NNW 00:52:16 11° N 00:53:21 10° NNE
Cosmos 858 Rocket 4.4 00:54:37 80° NNW 00:54:37 80° NNW 00:59:36 10° NNE
Cosmos 2315 Rocket 4.1 00:53:35 10° N 00:59:57 68° E 01:01:14 55° SE
USA 215 4.5 01:04:43 24° W 01:04:43 24° W 01:08:26 10° WNW
DELTA 2 R/B (1) 4.3 01:07:24 39° ESE 01:07:24 39° ESE 01:11:08 10° E
Meteor 2-3 Rocket 4.2 01:10:11 47° ESE 01:10:59 51° E 01:16:36 10° NNE
CZ-2C R/B 2.7 01:11:03 65° SE 01:11:43 74° ENE 01:17:15 10° N
DNEPR-1 R/B 3.9 01:08:38 10° NNW 01:12:14 59° N 01:12:14 59° N
Cosmos 1655 Rocket 3.9 01:20:19 63° SSW 01:21:26 84° W 01:27:52 10° N
Cosmos 2266 Rocket 4.5 01:21:32 43° WSW 01:22:36 47° WNW 01:28:46 10° N
Cosmos 1606 Rocket 4.1 01:19:45 10° NNW 01:23:12 52° NW 01:23:12 52° NW
Cosmos 2058 Rocket 3.9 01:20:57 10° N 01:25:10 42° ENE 01:25:27 41° E
Cosmos 1315 Rocket 4.2 01:21:50 10° NNE 01:25:07 31° ENE 01:25:07 31° ENE
IDEFIX/ARIANE 42P 3.1 01:26:35 10° NNE 01:31:33 44° E 01:32:15 42° ESE
Cosmos 2360 4.2 01:36:32 62° WSW 01:37:21 73° WNW 01:43:04 10° NNE
CZ-2C R/B 3.2 01:34:21 10° N 01:39:02 52° WNW 01:39:09 52° WNW
CZ-4C R/B 4.0 01:36:56 13° WNW 01:39:29 18° NW 01:43:11 10° N
Nimbus 7 Rocket 4.4 01:40:20 10° N 01:46:21 73° WNW 01:47:44 54° SW
ADEOS II 4.3 01:44:14 10° NE 01:47:30 17° E 01:50:13 12° SE
Cosmos 494 Rocket 3.8 01:43:21 10° NNW 01:48:37 83° WSW 01:49:10 71° S
Cosmos 1726 Rocket 4.3 01:49:04 10° NNW 01:52:49 42° WNW 01:52:49 42° WNW
Cosmos 2297 Rocket 2.1 01:49:33 10° NNW 01:55:14 86° WSW 01:56:44 51° SSE
Cosmos 1892 Rocket 4.3 01:55:42 39° WNW 01:55:42 39° WNW 01:59:28 10° N
Cosmos 1244 Rocket 4.4 01:55:36 51° SSW 01:57:18 83° W 02:03:39 10° N
MOZ.5/SAFIR/RUBIN 5/SL-8 4.4 01:56:34 34° SE 01:58:10 50° ENE 02:02:39 10° N
Cosmos 2112 Rocket 4.4 01:53:47 10° NNW 01:58:36 45° W 01:58:36 45° W
CZ-2D R/B 3.5 01:54:28 10° NE 01:59:03 30° E 02:01:07 23° SE
SL-19 R/B 4.4 01:53:20 10° NNE 01:59:10 79° WNW 02:00:57 49° SSW
Cosmos 1758 Rocket 3.8 02:05:25 55° SE 02:05:58 60° E 02:10:17 10° NNE
Cosmos 1602 Rocket 4.5 02:05:12 34° ESE 02:06:07 39° E 02:10:08 10° NNE
Spot 2 4.3 02:07:01 52° WNW 02:07:01 52° WNW 02:10:34 10° NNW
Nadezhda 2 Rocket 4.5 02:04:40 47° SSW 02:06:40 79° W 02:13:08 10° N
Cosmos 1980 Rocket 2.8 02:05:14 35° SSE 02:06:54 45° ESE 02:12:13 10° NE
H-2A R/B 4.0 02:09:34 21° WNW 02:09:34 21° WNW 02:11:23 10° NW
Tiangong -0.2 02:10:34 26° E 02:10:34 26° E 02:12:13 10° E
RESURS DK-1 2.9 02:07:15 10° NNW 02:10:15 45° WNW 02:10:15 45° WNW
Cosmos 1626 Rocket 3.3 02:12:06 75° SSW 02:12:28 87° WNW 02:16:50 10° N
Resurs 1-4 Rocket 2.8 02:08:20 10° NNE 02:13:25 45° E 02:15:34 30° SSE
SeaSat 1 2.4 02:11:35 36° SSE 02:13:38 83° ENE 02:18:32 10° NNW
Nadezhda 1 Rocket 4.3 02:09:01 10° N 02:15:13 62° E 02:19:10 23° SSE
Cosmos 1745 Rocket 4.3 02:12:25 33° SSE 02:15:23 66° E 02:21:41 10° NNE
Meteor 2-2 Rocket 4.1 02:09:51 10° NNW 02:15:29 78° W 02:17:16 45° S
Cosmos 1697 Rocket 2.8 02:14:32 47° SW 02:16:04 67° WNW 02:21:44 10° NNE
Cosmos 1356 Rocket 4.4 02:20:07 10° NNW 02:23:00 31° WNW 02:23:00 31° WNW
FENGYUN 3A 3.6 02:20:36 10° NNE 02:26:01 86° ESE 02:27:58 41° S
Cosmos 2227 Rocket 2.3 02:21:04 10° NNW 02:26:46 78° ENE 02:31:20 16° SSE
MSX 4.0 02:23:45 10° N 02:29:22 60° WNW 02:31:23 39° SW
Cosmos-2242 3.2 02:25:21 10° NNW 02:29:23 48° W 02:29:26 48° W
Cosmos 1709 Rocket 4.4 02:25:57 25° SSE 02:29:42 61° E 02:35:58 10° NNE
ISS -0.9 02:27:27 10° NNW 02:30:01 20° NNE 02:32:34 10° ENE
Okean 1 3.5 02:29:39 10° N 02:33:21 58° E 02:34:27 39° SE
H-2A R/B 1.9 02:29:38 10° N 02:33:48 81° WNW 02:34:42 55° SSW
Cosmos 1932 4.4 02:31:45 38° SW 02:34:19 85° WNW 02:40:41 10° NNE
Okean 1-7 Rocket 3.7 02:35:08 40° SSE 02:36:38 69° E 02:41:05 10° NNE
SL-23 DEB 4.1 02:37:57 40° SE 02:37:57 40° SE 02:40:51 10° ENE
ATLAS 2AS CENTAUR R/B 4.2 02:32:26 10° NNW 02:38:35 35° NE 02:44:39 10° ESE
USA 32 4.2 02:39:36 40° SW 02:41:12 57° W 02:46:22 10° N
NPP 4.2 02:40:31 10° N 02:45:38 46° WNW 02:47:39 32° WSW
ALOS 2.7 02:42:12 10° NNE 02:46:42 55° E 02:49:03 26° SSE
Cosmos 1743 4.3 02:45:31 17° SE 02:47:14 25° E 02:50:02 10° NE
Cosmos 1125 Rocket 3.9 02:46:24 34° WSW 02:48:18 49° WNW 02:53:26 10° N
Cosmos 192 4.3 02:46:47 38° SSW 02:48:42 88° WNW 02:53:40 10° NNE
COSMOS 2441 4.4 02:44:21 10° N 02:49:12 65° WNW 02:51:05 36° SW
Cosmos 2221 2.6 02:45:51 10° N 02:50:07 73° E 02:52:32 25° SSE
Cosmos 2298 Rocket 4.2 02:48:25 29° S 02:51:06 69° ESE 02:56:24 10° NNE
DELTA 2 R/B (1) 3.5 02:48:05 21° W 02:51:57 88° S 02:57:34 10° E
Cosmos 2151 2.8 02:51:45 39° S 02:53:15 90° WNW 02:57:26 10° N
Cosmos 2369 3.7 03:01:07 27° SSW 03:04:21 84° ESE 03:10:02 10° NNE
Cosmos 2333 Rocket 4.5 03:02:42 10° SE 03:06:24 18° E 03:10:06 10° ENE
Meteor 2-11 Rocket 4.4 03:04:17 25° SSW 03:07:56 68° W 03:14:00 10° N
IDEFIX/ARIANE 42P 4.1 03:06:45 10° NNW 03:10:41 22° WNW 03:12:57 17° W
Cosmos 1812 Rocket 3.8 03:06:47 10° NNW 03:11:02 48° W 03:12:55 29° SSW
Meteor 1-20 Rocket 4.3 03:08:16 19° S 03:12:38 83° E 03:18:29 10° N
Lacrosse 5 rocket 4.5 03:10:27 10° N 03:12:39 14° NNE 03:14:50 10° ENE
Cosmos 2082 4.2 03:11:05 10° NNW 03:16:44 63° ENE 03:22:18 10° SE
USA 234 3.5 03:12:56 10° NE 03:19:22 59° SE 03:24:13 18° SSW
CZ-3 R/B 4.1 02:41:44 10° WSW 03:24:09 57° S 03:34:59 10° ESE
Cosmos 1733 3.9 03:22:24 13° SSE 03:24:47 36° E 03:27:35 10° NNE
Cosmos 1825 Rocket 3.7 03:22:38 25° SSW 03:24:56 53° W 03:29:12 10° N
Cosmos 921 Rocket 3.1 03:20:51 10° NNW 03:25:18 80° ENE 03:29:39 10° SSE
Cosmos 2219 3.1 03:19:37 10° NNW 03:25:20 84° WSW 03:30:58 10° SSE
SL-16 R/B 3.1 03:20:31 10° S 03:25:47 44° ESE 03:31:08 10° NE
ADEOS II 2.3 03:22:17 10° N 03:27:25 58° WNW 03:31:01 19° SW
SL-16 R/B 2.9 03:22:01 10° SSE 03:28:13 70° ENE 03:34:27 10° N
Envisat 3.0 03:24:28 10° N 03:29:30 66° WNW 03:33:16 18° SSW
Cosmos 1238 Rocket 3.7 03:25:26 10° NNW 03:30:33 50° W 03:34:33 15° SSW
NOAA 11 4.4 03:26:39 10° N 03:31:58 55° WNW 03:35:56 18° SW
Cosmos 2263 Rocket 2.2 03:26:46 10° NNW 03:32:19 61° WSW 03:37:47 10° S
Cosmos 1076 Rocket 3.4 03:34:16 16° SSW 03:37:38 73° W 03:41:55 10° N
METEOR-M 4.2 03:32:16 10° NNE 03:37:39 86° ESE 03:42:54 10° SSW
Gbstr 26 Del rocket 4.3 03:31:24 10° NW 03:38:14 88° SW 03:46:03 10° SE
Cosmos 2297 Rocket 4.1 03:37:54 10° W 03:38:18 10° W 03:38:27 10° W
CZ-2D R/B 3.1 03:34:22 10° N 03:38:58 32° WNW 03:42:23 16° WSW
DMSP B5D2-2 4.0 03:34:20 10° S 03:39:34 73° WSW 03:44:49 10° NNW
OAO 2 Rocket 3.7 03:41:22 17° WSW 03:44:54 45° S 03:49:43 10° E
Tiangong -1.7 03:42:58 11° W 03:46:03 64° N 03:49:19 10° E
H-2A R/B 3.8 03:42:47 10° NNE 03:46:38 58° E 03:50:27 10° S
Meteor 1-27 Rocket 3.8 03:42:28 10° N 03:48:25 83° W 03:54:19 10° S
Cosmos 2074 Rocket 4.1 03:42:58 10° S 03:49:09 84° E 03:55:23 10° N
Cosmos 2237 4.2 03:44:35 14° SSW 03:49:32 77° WNW 03:55:14 10° NNE
Cosmos 1980 Rocket 3.5 03:46:59 12° WSW 03:51:04 26° NW 03:55:41 10° N
Cosmos 44 Rocket 4.5 03:46:59 10° S 03:51:12 35° ESE 03:55:28 10° NE
SeaSat 1 4.3 03:51:11 11° WSW 03:51:30 11° WSW 03:53:06 10° W
Resurs 1-4 Rocket 3.5 03:48:48 10° NNW 03:52:51 23° WNW 03:56:37 11° WSW
Meteor 1-25 Rocket 4.4 03:48:43 12° SSW 03:53:46 56° WNW 03:59:19 10° N
Cosmos 1346 Rocket 3.5 03:53:47 15° SW 03:56:16 32° WNW 03:59:36 10° N
Cosmos 1842 Rocket 3.5 03:53:45 10° N 03:58:12 81° W 04:02:33 10° S
BlueWalker 3 2.0 03:57:41 10° NW 04:01:20 75° NE 04:04:56 10° SE
H-2A R/B 1.9 03:57:08 10° N 04:02:08 79° WNW 04:07:00 10° SSW
Cosmos 2181 Rocket 4.1 03:58:40 10° NNW 04:04:42 58° W 04:10:40 10° S
ISS -3.9 04:03:42 10° NW 04:07:03 74° SW 04:10:22 10° SE
Cosmos 2227 Rocket 3.9 04:07:25 10° WNW 04:10:01 13° W 04:12:37 10° SW
USA 290 3.8 04:11:53 10° NW 04:14:18 19° WSW 04:16:42 10° SSW
BREEZE M DEB (TANK) 4.4 04:11:14 10° NW 04:14:38 60° NE 04:24:56 10° ESE
Cosmos 2278 3.8 04:11:10 10° SSW 04:16:47 71° WNW 04:22:26 10° NNE
CENTAUR R/B 2.6 04:12:37 10° SSW 04:17:47 69° ESE 04:24:16 10° NE
Cosmos 1842 2.8 04:15:39 10° NNW 04:19:02 69° W 04:22:23 10° S
Cosmos 1269 Rocket 4.0 04:13:54 10° NNW 04:19:13 82° WSW 04:24:29 10° SSE
Cosmos 1743 4.4 04:19:25 10° WSW 04:21:17 14° WNW 04:23:10 10° NW
CZ-2C R/B 2.5 04:18:06 10° NNE 04:23:04 84° WNW 04:28:08 10° SSW
ALOS 4.2 04:20:40 10° NNW 04:23:12 15° WNW 04:25:45 10° W
ACS3 Solar Sail 3.9 04:22:19 10° NE 04:27:16 27° E 04:32:18 10° SSE
